Flag for Cayman Islands Weather past 2 weeks in George Town, Cayman Islands

Now
82 °F

Warm.


Feels Like: 88 °F
Forecast: 82 / 86 °F
Wind: 5 mph from South

Location: Cayo Largo Del Sur

Current Time: Jul 30, 2015 at 5:35:13 AM

Latest Report: Jul 30, 2015 at 4:05 AM


Visibility: N/A

Pressure: 29.98 "Hg

Humidity: 74%

Dew point: 73 °F

Location of George TownLocation

Historic Weather in George Town — Graph

°F

George Town temperature yesterday

Maximum temperature yesterday: 90 °F (at 10:51 AM)
Minimum temperature yesterday: 84 °F (at 5:05 AM)
Average temperature yesterday: 87 °F

Past Weeks' High & Low Weather Summary

 TemperatureHumidityPressure
High91 °F (Jul 22, 3:53 PM)84% (Jul 15, 5:51 AM)30.07 "Hg (Jul 15, 5:51 AM)
Low79 °F (Jul 15, 5:51 AM)46% (Jul 28, 11:52 AM)29.92 "Hg (Jul 26, 2:05 AM)
Average85 °F67%30.01 "Hg
* Reported Jul 15 4:05 AM — Jul 30 4:05 AM, George Town, Weather by CustomWeather, © 2015

Note: Actual official high and low records may vary slightly from our data, if they occured in-between our weather recording intervals... More about our weather records

Advertising

George Town weather history for previous 24 hours

 ConditionsComfort  
Time TempWeatherWind HumidityBarometerVisibility
4:05 AM
Thu, Jul 30
82 °FWarm.5 mph74%29.98 "HgN/A
3:05 AM82 °FWarm.3 mph74%29.98 "HgN/A
2:05 AM84 °FWarm.5 mph74%29.98 "HgN/A
1:05 AM84 °FWarm.6 mph74%30.01 "HgN/A
12:05 AM84 °FWarm.5 mph74%30.01 "HgN/A
11:05 PM
Wed, Jul 29
84 °FWarm.7 mph74%30.01 "HgN/A
10:05 PM84 °FWarm.6 mph74%30.01 "HgN/A
9:05 PM84 °FWarm.6 mph74%30.01 "HgN/A
8:05 PM84 °FWarm.6 mph70%30.01 "HgN/A
7:05 PM86 °FWarm.7 mph70%29.98 "HgN/A
5:51 PM88 °FPassing clouds.7 mph62%29.98 "HgN/A
4:51 PM90 °FPassing clouds.7 mph59%29.98 "HgN/A
3:51 PM90 °FPassing clouds.7 mph59%29.98 "HgN/A
2:51 PM90 °FPassing clouds.7 mph52%29.98 "HgN/A
1:51 PM90 °FPassing clouds.9 mph59%30.01 "HgN/A
12:52 PM90 °FPassing clouds.10 mph59%30.01 "HgN/A
11:51 AM90 °FPassing clouds.8 mph55%30.01 "HgN/A
10:51 AM90 °FPassing clouds.8 mph59%30.01 "HgN/A
9:56 AM88 °FPassing clouds.8 mph62%30.01 "HgN/A
8:51 AM88 °FPassing clouds.9 mph66%29.98 "HgN/A
7:51 AM86 °FPassing clouds.9 mph70%29.98 "Hg6 mi
6:51 AM84 °FPassing clouds.10 mph74%29.98 "Hg6 mi
5:52 AM84 °FPassing clouds.12 mph74%29.95 "Hg6 mi
5:05 AM84 °FWarm.10 mph79%29.95 "HgN/A
Weather by CustomWeather, © 2015

See weather overviewHow to use our weather pages